Location: Gull Harbor
(47.1000°N, 122.9000°W)
Time: 18:39:25
(UTC-07:00)

Tiangong - Visible Passes

Search period start: 15 April 2024 00:00
Search period end: 25 April 2024 00:00
Orbit: 371 x 381 km, 41.5° (Epoch: 15 April)

Date Brightness Start Highest point End Pass type
(mag) Time Alt. Az. Time Alt. Az. Time Alt. Az.
17 Apr -0.1 21:35:49 10° SSW 21:36:55 15° S 21:36:55 15° S visible
18 Apr 0.0 20:34:19 10° S 20:35:45 13° SSE 20:37:12 10° SE visible
18 Apr 0.2 22:09:09 10° SW 22:09:57 15° SW 22:09:57 15° SW visible
19 Apr -0.7 21:07:00 10° SW 21:09:28 22° SSE 21:10:44 17° SE visible
20 Apr -1.1 21:40:36 10° WSW 21:43:19 28° S 21:43:24 28° S visible
21 Apr -0.9 20:38:20 10° SW 20:40:57 25° S 20:43:35 10° ESE visible
21 Apr -0.2 22:14:31 10° WSW 22:15:59 20° SW 22:15:59 20° SW visible
22 Apr -1.0 21:12:05 10° WSW 21:14:48 28° S 21:16:26 18° SE visible
23 Apr -0.6 21:46:09 10° WSW 21:48:37 22° SSW 21:48:53 22° S visible
24 Apr -0.8 20:43:38 10° WSW 20:46:17 26° S 20:48:56 10° SE visible
24 Apr 0.5 22:20:52 10° SW 22:21:17 11° SW 22:21:17 11° SW visible
